FW2979 Weather Reports


Display with metric or nautical units.
time (UTC)temp
F
wind
direction
speed
MPH
gust
MPH
rain 1hr
in
rain 24hr
in
rain mn
in
humidity
%
barometer
mb
20260508033833 44 325 13.0 17.0 0.00 0.00 0.00 85 813.3
20260508033503 44 311 9.0 12.0 0.00 0.00 0.00 85 813.4
20260508033353 44 313 9.0 12.0 0.00 0.00 0.00 85 813.3
20260508033243 44 312 9.0 13.0 0.00 0.00 0.00 85 813.3
20260508033132 44 306 11.0 14.0 0.00 0.00 0.00 85 813.4
20260508033023 44 306 10.0 15.0 0.00 0.00 0.00 85 813.3
20260508032913 44 304 12.0 14.0 0.00 0.00 0.00 85 813.3
20260508032652 44 306 12.0 14.0 0.00 0.00 0.00 85 813.3
20260508032542 44 307 13.0 15.0 0.00 0.00 0.00 86 813.3
20260508032433 44 305 14.0 15.0 0.00 0.00 0.00 86 813.3
20260508032213 44 304 12.0 14.0 0.00 0.00 0.00 87 813.3
20260508032103 44 304 13.0 16.0 0.00 0.00 0.00 87 813.3
20260508031953 44 306 12.0 14.0 0.00 0.00 0.00 87 813.3
20260508031843 44 304 14.0 15.0 0.00 0.00 0.00 87 813.3
20260508031623 44 304 14.0 16.0 0.00 0.00 0.00 87 813.1
20260508031252 44 304 15.0 17.0 0.00 0.00 0.00 87 813.1
20260508031143 44 307 14.0 17.0 0.00 0.00 0.00 87 813.1
20260508031033 44 302 14.0 16.0 0.00 0.00 0.00 87 813.1
20260508030813 44 304 14.0 16.0 0.00 0.00 0.00 87 813.1
20260508030702 44 304 14.0 17.0 0.00 0.00 0.00 87 813.1
20260508030552 44 300 15.0 17.0 0.00 0.00 0.00 87 813.1
20260508030443 44 299 15.0 17.0 0.00 0.00 0.00 88 813.1
20260508030333 44 286 11.0 16.0 0.00 0.00 0.00 89 813.0
20260508030223 44 291 15.0 19.0 0.00 0.00 0.00 89 813.1
20260508030113 44 291 14.0 17.0 0.00 0.00 0.00 89 813.1
20260508030003 44 294 13.0 17.0 0.00 0.00 0.00 89 813.1
20260508025854 44 286 13.0 17.0 0.00 0.00 0.00 89 813.1
20260508025633 44 278 13.0 17.0 0.00 0.00 0.00 88 813.1
20260508025523 44 277 13.0 16.0 0.00 0.00 0.00 88 813.1
20260508025413 44 277 15.0 20.0 0.00 0.00 0.00 88 813.1
20260508025305 44 278 13.0 18.0 0.00 0.00 0.00 89 813.1
20260508025152 44 272 14.0 18.0 0.00 0.00 0.00 88 813.0
20260508024933 44 281 15.0 18.0 0.00 0.00 0.00 88 813.1
20260508024823 44 276 14.0 17.0 0.00 0.00 0.00 89 813.0
20260508024713 44 277 14.0 17.0 0.00 0.00 0.00 89 813.1
20260508024452 44 278 11.0 17.0 0.00 0.00 0.00 88 813.1
20260508024343 44 281 11.0 14.0 0.00 0.00 0.00 88 813.1
20260508024233 44 290 14.0 18.0 0.00 0.00 0.00 87 813.0
20260508024122 44 283 15.0 21.0 0.00 0.00 0.00 88 813.0
20260508023902 44 288 12.0 17.0 0.00 0.00 0.00 87 813.1
20260508023753 44 292 13.0 17.0 0.00 0.00 0.00 87 813.0
20260508023642 44 288 12.0 15.0 0.00 0.00 0.00 87 813.1
20260508023533 44 293 15.0 17.0 0.00 0.00 0.00 87 813.0
20260508023422 44 294 14.0 17.0 0.00 0.00 0.00 87 813.0
20260508023313 44 292 14.0 17.0 0.00 0.00 0.00 87 813.0
20260508023202 44 292 13.0 16.0 0.00 0.00 0.00 87 813.0
20260508023053 44 282 13.0 16.0 0.00 0.00 0.00 86 813.0
20260508022834 44 287 12.0 15.0 0.00 0.00 0.00 86 813.1
20260508022722 44 289 13.0 16.0 0.00 0.00 0.00 86 813.0
20260508022613 44 289 12.0 15.0 0.00 0.00 0.00 86 813.0
20260508022503 44 282 13.0 17.0 0.00 0.00 0.00 86 813.0
20260508022353 44 290 11.0 14.0 0.00 0.00 0.00 86 813.0
20260508022242 44 287 12.0 14.0 0.00 0.00 0.00 86 813.1
20260508022133 44 288 12.0 15.0 0.00 0.00 0.00 86 813.1
20260508022023 44 275 11.0 16.0 0.00 0.00 0.00 87 813.3
20260508021913 44 279 11.0 14.0 0.00 0.00 0.00 88 813.3
20260508021543 44 268 8.0 12.0 0.00 0.00 0.00 89 813.3
20260508021433 44 260 8.0 12.0 0.00 0.00 0.00 89 813.3
20260508021212 44 257 9.0 12.0 0.00 0.00 0.00 88 813.1
20260508021102 44 256 11.0 14.0 0.00 0.00 0.00 89 813.1
20260508020953 44 260 11.0 14.0 0.00 0.00 0.00 89 813.1
20260508020842 44 263 12.0 14.0 0.00 0.00 0.00 89 813.1
20260508020732 44 260 10.0 14.0 0.00 0.00 0.00 89 813.1
20260508020622 44 262 12.0 13.0 0.00 0.00 0.00 89 813.1
20260508020402 43 262 12.0 15.0 0.00 0.00 0.00 90 813.0
20260508020252 43 264 11.0 14.0 0.00 0.00 0.00 91 813.0
20260508020143 43 259 10.0 13.0 0.00 0.00 0.00 91 813.1
20260508020032 43 259 10.0 12.0 0.00 0.00 0.00 92 813.1
20260508015922 43 261 10.0 13.0 0.00 0.00 0.00 92 813.3
20260508015812 43 254 8.0 11.0 0.00 0.00 0.00 92 813.3
20260508015702 43 250 6.0 9.0 0.00 0.00 0.00 92 813.3
20260508015553 43 243 6.0 10.0 0.00 0.00 0.00 92 813.3
20260508015222 43 242 8.0 12.0 0.00 0.00 0.00 93 813.3
20260508015112 43 241 8.0 12.0 0.00 0.00 0.00 93 813.3
20260508015002 43 240 8.0 13.0 0.00 0.00 0.00 94 813.3
20260508014853 43 238 9.0 14.0 0.00 0.00 0.00 94 813.3
20260508014743 43 242 10.0 14.0 0.00 0.00 0.00 94 813.3
20260508014522 43 245 8.0 12.0 0.00 0.00 0.00 95 813.1
20260508014412 43 249 8.0 12.0 0.00 0.00 0.00 95 813.3
20260508014302 43 257 9.0 12.0 0.00 0.00 0.00 95 813.3
20260508014152 43 262 8.0 11.0 0.00 0.00 0.00 94 813.3
20260508014043 43 257 7.0 9.0 0.00 0.00 0.00 94 813.3
20260508013932 43 249 8.0 10.0 0.00 0.00 0.00 93 813.3
20260508013822 43 256 10.0 13.0 0.00 0.00 0.00 93 813.3
20260508013712 43 253 8.0 13.0 0.00 0.00 0.00 93 813.3
20260508013603 43 252 7.0 11.0 0.00 0.00 0.00 92 813.4
20260508013232 43 255 8.0 12.0 0.00 0.00 0.00 91 813.4
20260508013012 43 260 8.0 12.0 0.00 0.00 0.00 91 813.4
20260508012902 43 260 10.0 12.0 0.00 0.00 0.00 91 813.4
20260508012753 43 262 11.0 13.0 0.00 0.00 0.00 92 813.4
20260508012643 43 258 9.0 13.0 0.00 0.00 0.00 92 813.4
20260508012423 43 266 7.0 12.0 0.00 0.00 0.00 91 813.4
20260508012313 43 257 8.0 13.0 0.00 0.00 0.00 91 813.4
20260508012052 43 266 9.0 14.0 0.00 0.00 0.00 92 813.4
20260508011943 43 271 12.0 17.0 0.00 0.00 0.00 91 813.4
20260508011832 44 281 13.0 16.0 0.00 0.00 0.00 91 813.4
20260508011722 44 280 12.0 16.0 0.00 0.00 0.00 90 813.3
20260508011612 44 273 11.0 15.0 0.00 0.00 0.00 89 813.4
20260508011503 44 285 17.0 21.0 0.00 0.00 0.00 89 813.3
20260508011352 44 288 16.0 20.0 0.00 0.00 0.00 89 813.4
20260508011243 44 279 16.0 21.0 0.00 0.00 0.00 89 813.4
20260508011133 44 286 18.0 23.0 0.00 0.00 0.00 89 813.4
20260508011022 44 283 18.0 23.0 0.00 0.00 0.00 89 813.4
20260508010913 44 295 16.0 22.0 0.00 0.00 0.00 89 813.4
20260508010802 44 286 17.0 22.0 0.00 0.00 0.00 89 813.4
20260508010652 43 290 16.0 23.0 0.00 0.00 0.00 90 813.4
20260508010542 43 276 15.0 21.0 0.00 0.00 0.00 90 813.4
20260508010433 43 286 14.0 20.0 0.00 0.00 0.00 90 813.4
20260508010323 44 284 14.0 20.0 0.00 0.00 0.00 90 813.4
20260508010213 44 277 14.0 18.0 0.00 0.00 0.00 90 813.5
20260508005733 44 288 16.0 19.0 0.00 0.00 0.00 90 813.4
20260508005622 44 292 15.0 19.0 0.00 0.00 0.00 89 813.4
20260508005403 44 286 17.0 23.0 0.00 0.00 0.00 90 813.4
20260508005253 43 285 15.0 22.0 0.00 0.00 0.00 89 813.5
20260508005142 43 281 14.0 19.0 0.00 0.00 0.00 90 813.4
20260508005033 44 287 16.0 23.0 0.00 0.00 0.00 90 813.4
20260508004923 43 280 12.0 17.0 0.00 0.00 0.00 90 813.4
20260508004812 43 280 15.0 22.0 0.00 0.00 0.00 90 813.4
20260508004703 43 280 15.0 25.0 0.00 0.00 0.00 91 813.4
20260508004553 43 287 15.0 23.0 0.00 0.00 0.00 90 813.4
20260508004443 43 274 14.0 20.0 0.00 0.00 0.00 91 813.5
20260508004332 43 267 13.0 23.0 0.00 0.00 0.00 92 813.4
20260508004003 43 274 17.0 23.0 0.00 0.00 0.00 93 813.4
20260508003852 43 272 14.0 19.0 0.00 0.00 0.00 94 813.4
20260508003742 43 272 14.0 20.0 0.00 0.00 0.00 94 813.4
20260508003633 43 272 18.0 24.0 0.00 0.00 0.00 94 813.4
20260508003522 43 269 16.0 21.0 0.00 0.00 0.00 94 813.4
20260508003412 43 270 17.0 24.0 0.00 0.00 0.00 94 813.5
20260508003302 43 269 16.0 22.0 0.00 0.00 0.00 94 813.4
20260508003152 43 266 17.0 23.0 0.00 0.00 0.00 94 813.5
20260508003043 43 273 18.0 25.0 0.00 0.00 0.00 94 813.4
20260508002933 43 270 17.0 23.0 0.00 0.00 0.00 94 813.4
20260508002822 43 264 20.0 29.0 0.00 0.00 0.00 93 813.4
20260508002713 43 268 18.0 26.0 0.00 0.00 0.00 94 813.4
20260508002603 43 264 19.0 27.0 0.00 0.00 0.00 94 813.4
20260508002452 43 272 18.0 23.0 0.00 0.00 0.00 95 813.4
20260508002343 43 275 21.0 26.0 0.00 0.00 0.00 94 813.4
20260508002232 43 274 17.0 25.0 0.00 0.00 0.00 95 813.4
20260508002123 43 269 18.0 26.0 0.00 0.00 0.00 96 813.4
20260508001902 43 276 19.0 24.0 0.00 0.00 0.00 96 813.4
20260508001642 43 267 18.0 23.0 0.00 0.00 0.00 96 813.4
20260508001532 43 274 18.0 24.0 0.00 0.00 0.00 96 813.4
20260508001422 43 277 17.0 23.0 0.00 0.00 0.00 96 813.4
20260508001313 43 273 17.0 23.0 0.00 0.00 0.00 96 813.4
20260508001203 43 272 17.0 27.0 0.00 0.00 0.00 97 813.5
20260508001052 43 273 17.0 21.0 0.00 0.00 0.00 97 813.5
20260508000943 43 273 16.0 24.0 0.00 0.00 0.00 97 813.4
20260508000833 43 272 16.0 22.0 0.00 0.00 0.00 97 813.4
20260508000722 43 270 15.0 20.0 0.00 0.00 0.00 97 813.7
20260508000612 43 266 15.0 22.0 0.00 0.00 0.00 97 813.5
20260508000503 43 272 15.0 22.0 0.00 0.00 0.00 97 813.7
20260508000352 43 272 15.0 20.0 0.00 0.00 0.00 97 813.5
20260508000242 43 273 16.0 21.0 0.00 0.00 0.00 97 813.5
20260508000133 43 268 15.0 21.0 0.00 0.00 0.00 97 813.5
20260508000022 43 258 12.0 18.0 0.00 0.00 0.00 97 813.4
20260507235652 43 253 10.0 18.0 0.00 0.00 0.00 96 813.7
20260507235432 43 254 13.0 23.0 0.00 0.00 0.00 96 813.7
20260507235322 43 254 11.0 20.0 0.00 0.00 0.00 96 813.7
20260507235212 43 249 10.0 20.0 0.00 0.00 0.00 96 813.5
20260507235102 43 255 12.0 20.0 0.00 0.00 0.00 96 813.5
20260507234952 43 243 11.0 17.0 0.00 0.00 0.00 96 813.5
20260507234842 43 250 11.0 20.0 0.00 0.00 0.00 96 813.7
20260507234733 43 249 11.0 17.0 0.00 0.00 0.00 96 813.5
20260507234402 43 244 10.0 19.0 0.00 0.00 0.00 96 813.4
20260507234144 43 245 8.0 15.0 0.00 0.00 0.00 96 813.5
20260507234034 43 241 9.0 16.0 0.00 0.00 0.00 96 813.7
20260507233922 43 238 11.0 17.0 0.00 0.00 0.00 96 813.5
20260507233812 43 241 12.0 18.0 0.00 0.00 0.00 96 813.5
20260507233703 43 246 12.0 18.0 0.00 0.00 0.00 96 813.7
20260507233552 43 248 9.0 18.0 0.00 0.00 0.00 96 813.7
20260507233443 43 240 11.0 17.0 0.00 0.00 0.00 96 813.5
20260507233222 43 236 10.0 15.0 0.00 0.00 0.00 96 813.7
20260507233112 43 237 11.0 17.0 0.00 0.00 0.00 96 813.7
20260507233002 43 239 10.0 15.0 0.00 0.00 0.00 95 813.7
20260507232742 43 243 10.0 17.0 0.00 0.00 0.00 95 813.7
20260507232632 43 242 12.0 17.0 0.00 0.00 0.00 94 813.7
20260507232522 43 233 9.0 15.0 0.00 0.00 0.00 94 813.7
20260507232306 43 245 14.0 19.0 0.00 0.00 0.00 94 813.8
20260507232152 43 243 14.0 18.0 0.00 0.00 0.00 94 813.7
20260507232042 43 244 13.0 18.0 0.00 0.00 0.00 94 813.5
20260507231823 43 247 11.0 18.0 0.00 0.00 0.00 93 813.8
20260507231712 44 248 12.0 17.0 0.00 0.00 0.00 93 813.8
20260507231602 44 245 15.0 21.0 0.00 0.00 0.00 93 813.7
20260507231452 44 247 15.0 20.0 0.00 0.00 0.00 92 813.7
20260507231232 44 246 17.0 21.0 0.00 0.00 0.00 92 813.7
20260507231012 44 248 14.0 20.0 0.00 0.00 0.00 92 813.8
20260507230902 44 240 13.0 20.0 0.00 0.00 0.00 92 813.8
20260507230642 44 245 16.0 20.0 0.00 0.00 0.00 92 813.5
20260507230533 44 245 15.0 21.0 0.00 0.00 0.00 92 813.7
20260507230202 44 245 13.0 19.0 0.00 0.00 0.00 93 813.8
20260507230052 44 244 16.0 21.0 0.00 0.00 0.00 93 813.7
20260507225942 44 241 15.0 21.0 0.00 0.00 0.00 93 813.7
20260507225832 44 234 12.0 18.0 0.00 0.00 0.00 93 813.7
20260507225722 44 244 14.0 20.0 0.00 0.00 0.00 93 813.7
20260507225612 44 246 13.0 19.0 0.00 0.00 0.00 93 813.8
20260507225502 44 241 15.0 22.0 0.00 0.00 0.00 93 813.8
20260507225352 44 240 15.0 21.0 0.00 0.00 0.00 93 813.5
20260507225242 44 239 12.0 23.0 0.00 0.00 0.00 93 813.8
20260507225132 44 245 13.0 23.0 0.00 0.00 0.00 94 813.8
20260507224912 44 244 14.0 21.0 0.00 0.00 0.00 94 813.8
20260507224652 43 241 15.0 22.0 0.00 0.00 0.00 94 813.7
20260507224542 43 244 14.0 24.0 0.00 0.00 0.00 94 813.7
20260507224432 43 240 13.0 19.0 0.00 0.00 0.00 94 813.8
20260507224322 43 237 11.0 20.0 0.00 0.00 0.00 94 813.8
20260507224212 43 237 14.0 20.0 0.00 0.00 0.00 94 813.8
20260507224102 43 244 14.0 24.0 0.00 0.00 0.00 95 813.8
20260507223952 43 244 14.0 21.0 0.00 0.00 0.00 95 813.8
20260507223842 43 240 14.0 20.0 0.00 0.00 0.00 95 813.8
20260507223732 43 245 13.0 18.0 0.00 0.00 0.00 95 813.8
20260507223622 43 248 12.0 19.0 0.00 0.00 0.00 96 813.8
20260507223512 43 244 16.0 23.0 0.00 0.00 0.00 96 813.8
20260507223402 43 244 17.0 22.0 0.00 0.00 0.00 96 813.8
20260507223252 43 248 13.0 22.0 0.00 0.00 0.00 96 813.8
20260507222922 43 245 14.0 24.0 0.00 0.00 0.00 97 813.8
20260507222812 43 247 13.0 22.0 0.00 0.00 0.00 98 813.8
20260507222702 43 248 12.0 20.0 0.00 0.00 0.00 98 813.9
20260507222552 43 248 12.0 17.0 0.00 0.00 0.00 98 813.9
20260507222442 43 243 13.0 21.0 0.00 0.00 0.00 98 813.9
20260507222332 43 246 15.0 22.0 0.00 0.00 0.00 99 813.8
20260507222222 43 253 15.0 22.0 0.00 0.00 0.00 99 813.8
20260507222112 43 252 13.0 22.0 0.00 0.00 0.00 99 813.8
20260507222002 43 249 13.0 20.0 0.00 0.00 0.00 99 814.1
20260507221852 43 245 11.0 17.0 0.00 0.00 0.00 99 813.9
20260507221522 43 249 14.0 22.0 0.00 0.00 0.00 10 813.8
20260507221412 43 246 11.0 19.0 0.00 0.00 0.00 10 813.9
20260507221302 43 250 13.0 23.0 0.00 0.00 0.00 10 813.8
20260507221152 43 251 13.0 21.0 0.00 0.00 0.00 10 813.9
20260507221042 43 248 12.0 19.0 0.00 0.00 0.00 10 813.9
20260507220932 43 247 10.0 17.0 0.00 0.00 0.00 10 814.1
20260507220822 43 247 9.0 17.0 0.00 0.00 0.00 10 814.2
20260507220712 43 244 10.0 18.0 0.00 0.00 0.00 10 814.1
20260507220602 43 239 9.0 18.0 0.00 0.00 0.00 10 814.1
20260507220452 43 244 9.0 14.0 0.00 0.00 0.00 10 814.1
20260507220122 43 240 10.0 16.0 0.00 0.00 0.00 10 814.2
20260507220012 43 246 8.0 15.0 0.00 0.00 0.00 10 814.1
20260507215902 43 234 7.0 12.0 0.00 0.00 0.00 10 813.9
20260507215752 43 242 8.0 13.0 0.00 0.00 0.00 10 813.9
20260507215642 43 247 10.0 19.0 0.00 0.00 0.00 10 813.9
20260507215422 43 243 9.0 15.0 0.00 0.00 0.00 10 814.1
20260507215312 43 241 9.0 14.0 0.00 0.00 0.00 10 813.9
20260507215202 43 244 8.0 16.0 0.00 0.00 0.00 10 814.1
20260507215052 43 242 9.0 15.0 0.00 0.00 0.00 10 814.1
20260507214942 43 245 10.0 16.0 0.00 0.00 0.00 10 813.9
20260507214833 43 250 10.0 16.0 0.00 0.00 0.00 10 813.9
20260507214502 43 243 9.0 15.0 0.00 0.00 0.00 10 813.9
20260507214352 43 242 10.0 16.0 0.00 0.00 0.00 10 814.1
20260507214132 43 240 9.0 16.0 0.00 0.00 0.00 10 813.9
20260507213912 43 241 10.0 15.0 0.00 0.00 0.00 10 813.9
20260507213802 43 249 9.0 17.0 0.00 0.00 0.00 10 813.9
20260507213652 43 243 9.0 18.0 0.00 0.00 0.00 10 813.9
20260507213542 43 239 9.0 15.0 0.00 0.00 0.00 10 813.9
20260507213432 43 243 11.0 17.0 0.00 0.00 0.00 10 813.9
20260507213322 43 244 12.0 17.0 0.00 0.00 0.00 10 814.1
20260507213212 43 245 11.0 19.0 0.00 0.00 0.00 10 814.1
20260507213102 43 237 9.0 17.0 0.00 0.00 0.00 10 814.1
20260507212952 43 241 9.0 14.0 0.00 0.00 0.00 10 814.1
20260507212842 43 243 10.0 15.0 0.00 0.00 0.00 10 814.2
20260507212732 43 239 11.0 17.0 0.00 0.00 0.00 10 814.2
20260507212622 43 242 11.0 17.0 0.00 0.00 0.00 10 814.2
20260507212512 43 237 9.0 15.0 0.00 0.00 0.00 10 814.1
20260507212402 43 237 10.0 19.0 0.00 0.00 0.00 10 814.2
20260507212252 43 240 11.0 17.0 0.00 0.00 0.00 10 814.2
20260507212142 43 241 10.0 15.0 0.00 0.00 0.00 10 814.1
20260507212032 43 246 11.0 19.0 0.00 0.00 0.00 10 814.2
20260507211922 43 241 10.0 15.0 0.00 0.00 0.00 10 814.2
20260507211812 43 244 10.0 18.0 0.00 0.00 0.00 10 813.9
20260507211702 43 242 12.0 19.0 0.00 0.00 0.00 10 813.9
20260507211552 43 243 12.0 18.0 0.00 0.00 0.00 10 813.9
20260507211332 43 243 9.0 13.0 0.00 0.00 0.00 99 814.2
20260507211222 43 241 10.0 18.0 0.00 0.00 0.00 99 814.2
20260507211112 43 241 10.0 16.0 0.00 0.00 0.00 99 814.2
20260507211002 43 243 10.0 15.0 0.00 0.00 0.00 99 814.2
20260507210852 43 242 10.0 17.0 0.00 0.00 0.00 99 814.1
20260507210742 43 242 12.0 21.0 0.00 0.00 0.00 99 814.1
20260507210522 43 242 11.0 17.0 0.00 0.00 0.00 99 813.9
20260507210412 43 245 13.0 18.0 0.00 0.00 0.00 99 813.9
20260507210302 43 251 13.0 18.0 0.00 0.00 0.00 98 814.1
20260507210152 43 247 11.0 19.0 0.00 0.00 0.00 98 814.1
20260507210042 43 237 11.0 19.0 0.00 0.00 0.00 98 814.2
20260507205933 43 239 10.0 17.0 0.00 0.00 0.00 98 814.2
20260507205822 43 240 10.0 19.0 0.00 0.00 0.00 98 814.1
20260507205712 43 237 9.0 16.0 0.00 0.00 0.00 98 814.2
20260507205602 43 238 11.0 17.0 0.00 0.00 0.00 99 814.1
20260507205342 43 246 12.0 20.0 0.00 0.00 0.00 98 813.9
20260507205232 43 239 11.0 18.0 0.00 0.00 0.00 98 814.1
20260507205012 43 233 12.0 23.0 0.00 0.00 0.00 98 813.8
20260507204902 43 238 10.0 18.0 0.00 0.00 0.00 97 813.9
20260507204752 43 232 10.0 17.0 0.00 0.00 0.00 97 813.9
20260507204642 43 232 11.0 19.0 0.00 0.00 0.00 96 813.8
20260507204532 43 237 13.0 19.0 0.00 0.00 0.00 96 813.8
20260507204422 43 241 13.0 19.0 0.00 0.00 0.00 97 813.8
20260507204312 43 238 13.0 22.0 0.00 0.00 0.00 96 813.8
20260507204202 43 239 12.0 19.0 0.00 0.00 0.00 96 813.8
20260507204052 43 239 12.0 18.0 0.00 0.00 0.00 96 813.9
20260507203942 43 244 13.0 20.0 0.00 0.00 0.00 96 813.9
20260507203832 43 243 13.0 20.0 0.00 0.00 0.00 96 813.8
20260507203722 43 240 12.0 17.0 0.00 0.00 0.00 96 813.9
20260507203612 43 233 11.0 18.0 0.00 0.00 0.00 96 813.9
20260507203502 43 236 12.0 19.0 0.00 0.00 0.00 96 813.9
20260507203352 43 241 14.0 22.0 0.00 0.00 0.00 96 813.8
20260507203242 43 245 13.0 22.0 0.00 0.00 0.00 97 813.8
20260507203132 43 239 11.0 18.0 0.00 0.00 0.00 97 813.9
20260507203022 43 237 10.0 18.0 0.00 0.00 0.00 97 813.9
20260507202912 43 233 12.0 17.0 0.00 0.00 0.00 97 813.9
20260507202802 43 238 13.0 22.0 0.00 0.00 0.00 97 813.9
20260507202652 43 237 12.0 17.0 0.00 0.00 0.00 97 813.9
20260507202432 43 237 10.0 15.0 0.00 0.00 0.00 97 814.1
20260507202322 43 235 11.0 16.0 0.00 0.00 0.00 97 813.8
20260507202212 43 237 13.0 21.0 0.00 0.00 0.00 97 813.8
20260507202102 43 241 14.0 22.0 0.00 0.00 0.00 97 813.8
20260507201952 43 239 12.0 19.0 0.00 0.00 0.00 97 813.9
20260507201842 43 238 10.0 18.0 0.00 0.00 0.00 97 813.9
20260507201732 43 239 12.0 17.0 0.00 0.00 0.00 97 813.9
20260507201622 43 243 13.0 17.0 0.00 0.00 0.00 97 813.9
20260507201402 43 242 14.0 19.0 0.00 0.00 0.00 97 813.9
20260507201252 43 243 14.0 22.0 0.00 0.00 0.00 97 813.9
20260507201142 43 236 12.0 18.0 0.00 0.00 0.00 97 813.9
20260507201032 43 237 13.0 22.0 0.00 0.00 0.00 98 813.9
20260507200922 43 238 12.0 18.0 0.00 0.00 0.00 98 813.9
20260507200812 43 239 13.0 19.0 0.00 0.00 0.00 98 813.9
20260507200702 43 239 13.0 19.0 0.00 0.00 0.00 98 814.1
20260507200552 43 237 12.0 18.0 0.00 0.00 0.00 99 814.1
20260507200442 43 237 12.0 18.0 0.00 0.00 0.00 99 814.1
20260507200332 43 240 12.0 17.0 0.00 0.00 0.00 10 814.1
20260507200222 43 242 12.0 17.0 0.00 0.00 0.00 10 813.9
20260507200112 43 246 13.0 19.0 0.00 0.00 0.00 99 814.2
20260507200002 43 241 11.0 17.0 0.00 0.00 0.00 99 814.2
20260507195852 43 238 12.0 18.0 0.00 0.00 0.00 99 814.1
20260507195632 43 244 13.0 18.0 0.00 0.00 0.00 10 814.2
20260507195522 43 242 12.0 18.0 0.00 0.00 0.00 10 814.2
20260507195412 43 242 11.0 16.0 0.00 0.00 0.00 99 814.1
20260507195305 43 239 13.0 19.0 0.00 0.00 0.00 99 814.1
20260507195152 43 242 12.0 17.0 0.00 0.00 0.00 99 814.2
20260507194932 43 243 13.0 21.0 0.00 0.00 0.00 99 814.1
20260507194822 43 249 15.0 22.0 0.00 0.00 0.00 99 814.1
20260507194712 43 246 14.0 22.0 0.00 0.00 0.00 99 813.9
20260507194602 43 247 13.0 23.0 0.00 0.00 0.00 99 813.9
20260507194452 43 245 12.0 19.0 0.00 0.00 0.00 99 813.9
20260507194342 43 246 12.0 25.0 0.00 0.00 0.00 98 814.1
20260507194232 43 242 13.0 18.0 0.00 0.00 0.00 98 814.1
20260507194122 43 246 13.0 21.0 0.00 0.00 0.00 98 814.1
20260507194012 43 244 14.0 19.0 0.00 0.00 0.00 98 813.9
20260507193902 44 244 15.0 21.0 0.00 0.00 0.00 98 813.9
20260507193752 44 246 13.0 20.0 0.00 0.00 0.00 97 814.1
20260507193642 44 237 13.0 20.0 0.00 0.00 0.00 97 814.2
20260507193422 44 244 12.0 20.0 0.00 0.00 0.00 96 814.2
20260507193312 44 241 13.0 18.0 0.00 0.00 0.00 96 814.1
20260507193202 44 239 11.0 16.0 0.00 0.00 0.00 96 814.2
20260507193052 44 238 12.0 18.0 0.00 0.00 0.00 95 814.2
20260507192832 44 242 13.0 18.0 0.00 0.00 0.00 94 814.2
20260507192722 44 244 11.0 17.0 0.00 0.00 0.00 94 814.2
20260507192612 44 240 10.0 15.0 0.00 0.00 0.00 94 814.2
20260507192502 44 240 12.0 19.0 0.00 0.00 0.00 93 814.2
20260507192352 44 244 13.0 20.0 0.00 0.00 0.00 92 814.2
20260507192242 44 244 13.0 21.0 0.00 0.00 0.00 92 814.2
20260507192132 44 241 13.0 19.0 0.00 0.00 0.00 91 814.3
20260507192022 44 235 11.0 19.0 0.00 0.00 0.00 92 814.2
20260507191912 44 243 14.0 18.0 0.00 0.00 0.00 91 814.2
20260507191802 44 239 12.0 18.0 0.00 0.00 0.00 91 814.2
20260507191652 44 240 12.0 18.0 0.00 0.00 0.00 91 814.2
20260507191432 45 239 13.0 20.0 0.00 0.00 0.00 91 814.2
20260507191322 45 242 15.0 21.0 0.00 0.00 0.00 91 814.2
20260507191102 45 234 11.0 17.0 0.00 0.00 0.00 90 814.2
20260507190952 45 236 12.0 20.0 0.00 0.00 0.00 90 814.2
20260507190842 45 238 14.0 22.0 0.00 0.00 0.00 90 814.2
20260507190732 45 238 14.0 21.0 0.00 0.00 0.00 90 814.2
20260507190512 45 240 13.0 18.0 0.00 0.00 0.00 90 814.2
20260507190252 45 241 14.0 20.0 0.00 0.00 0.00 90 814.2
20260507190142 45 237 12.0 20.0 0.00 0.00 0.00 90 814.2
20260507185812 45 246 12.0 18.0 0.00 0.00 0.00 90 814.2
20260507185702 45 241 11.0 17.0 0.00 0.00 0.00 90 814.2
20260507185552 45 243 13.0 21.0 0.00 0.00 0.00 90 814.2
20260507185442 45 242 14.0 21.0 0.00 0.00 0.00 90 814.2
20260507185332 45 238 12.0 20.0 0.00 0.00 0.00 90 814.2
20260507185222 45 244 14.0 21.0 0.00 0.00 0.00 90 814.2
20260507185112 45 249 15.0 23.0 0.00 0.00 0.00 90 814.2
20260507185002 45 246 15.0 23.0 0.00 0.00 0.00 90 814.2
20260507184852 45 245 15.0 21.0 0.00 0.00 0.00 90 814.2
20260507184742 45 246 12.0 19.0 0.00 0.00 0.00 89 814.2
20260507184522 45 244 15.0 23.0 0.00 0.00 0.00 89 814.2
20260507184412 45 243 13.0 20.0 0.00 0.00 0.00 89 814.2
20260507184302 45 245 14.0 22.0 0.00 0.00 0.00 89 814.2
20260507184152 45 242 14.0 21.0 0.00 0.00 0.00 89 814.2
20260507184042 45 243 12.0 20.0 0.00 0.00 0.00 89 814.2
20260507183932 45 241 12.0 18.0 0.00 0.00 0.00 89 814.2
20260507183822 45 244 13.0 19.0 0.00 0.00 0.00 89 814.2
20260507183602 45 242 12.0 17.0 0.00 0.00 0.00 89 814.2
20260507183452 45 242 12.0 19.0 0.00 0.00 0.00 89 814.2
20260507183342 45 241 13.0 20.0 0.00 0.00 0.00 89 814.2
20260507183122 45 241 13.0 19.0 0.00 0.00 0.00 89 814.2
20260507183012 45 245 13.0 18.0 0.00 0.00 0.00 89 814.2
20260507182902 45 244 13.0 19.0 0.00 0.00 0.00 89 814.1
20260507182532 45 244 14.0 20.0 0.00 0.00 0.00 88 814.1
20260507182422 45 243 12.0 18.0 0.00 0.00 0.00 88 814.1
20260507182312 45 246 12.0 19.0 0.00 0.00 0.00 88 814.1
20260507182202 45 248 16.0 22.0 0.00 0.00 0.00 88 814.2
20260507182052 45 246 15.0 22.0 0.00 0.00 0.00 88 814.2
20260507181942 45 247 14.0 21.0 0.00 0.00 0.00 89 814.1
20260507181832 45 246 12.0 21.0 0.00 0.00 0.00 89 814.1
20260507181722 45 243 14.0 22.0 0.00 0.00 0.00 89 814.1
20260507181612 45 244 15.0 24.0 0.00 0.00 0.00 88 813.9
20260507181352 45 245 13.0 21.0 0.00 0.00 0.00 89 813.8
20260507181242 45 246 15.0 22.0 0.00 0.00 0.00 89 813.8
20260507181132 45 246 14.0 20.0 0.00 0.00 0.00 89 813.9
20260507181022 45 248 14.0 19.0 0.00 0.00 0.00 89 813.8
20260507180802 45 247 15.0 23.0 0.00 0.00 0.00 90 813.8
20260507180653 45 250 15.0 23.0 0.00 0.00 0.00 89 813.9
20260507180432 45 248 19.0 25.0 0.00 0.00 0.00 89 813.8
20260507180323 45 250 19.0 25.0 0.00 0.00 0.00 90 813.8
20260507180212 45 248 15.0 23.0 0.00 0.00 0.00 90 813.9
20260507175952 45 249 19.0 27.0 0.00 0.00 0.00 89 813.8
20260507175842 45 249 18.0 27.0 0.00 0.00 0.00 89 813.7
20260507175734 45 248 18.0 25.0 0.00 0.00 0.00 89 813.7
20260507175623 45 249 18.0 25.0 0.00 0.00 0.00 89 813.8
20260507175512 45 244 16.0 25.0 0.00 0.00 0.00 89 813.8
20260507175402 45 247 15.0 23.0 0.00 0.00 0.00 89 813.8
20260507175252 45 253 15.0 23.0 0.00 0.00 0.00 89 813.8
20260507175142 45 250 16.0 21.0 0.00 0.00 0.00 89 813.8
20260507175032 45 247 17.0 23.0 0.00 0.00 0.00 89 813.8
20260507174922 45 250 16.0 24.0 0.00 0.00 0.00 89 813.8
20260507174812 45 250 15.0 23.0 0.00 0.00 0.00 89 813.8
20260507174552 45 247 14.0 21.0 0.00 0.00 0.00 88 813.8
20260507174442 45 248 14.0 24.0 0.00 0.00 0.00 88 813.8
20260507174332 45 246 15.0 20.0 0.00 0.00 0.00 88 813.8
20260507174222 45 250 15.0 22.0 0.00 0.00 0.00 87 813.9
20260507174112 45 252 17.0 25.0 0.00 0.00 0.00 88 813.8
20260507174002 45 247 17.0 24.0 0.00 0.00 0.00 88 813.8
20260507173852 45 246 18.0 24.0 0.00 0.00 0.00 88 813.9
20260507173742 45 247 14.0 23.0 0.00 0.00 0.00 88 813.8
20260507173632 45 247 17.0 24.0 0.00 0.00 0.00 88 813.8
20260507173522 45 247 15.0 24.0 0.00 0.00 0.00 88 813.8
20260507173412 45 247 13.0 19.0 0.00 0.00 0.00 88 813.8
20260507173302 45 243 15.0 20.0 0.00 0.00 0.00 88 813.8
20260507172932 45 251 16.0 22.0 0.00 0.00 0.00 88 813.8
20260507172822 45 238 12.0 21.0 0.00 0.00 0.00 89 813.8
20260507172602 45 248 13.0 19.0 0.00 0.00 0.00 89 813.8
20260507172452 45 245 13.0 21.0 0.00 0.00 0.00 89 813.8
20260507172342 45 244 13.0 19.0 0.00 0.00 0.00 89 813.8
20260507172232 45 246 13.0 19.0 0.00 0.00 0.00 89 813.9
20260507172122 45 245 13.0 19.0 0.00 0.00 0.00 89 813.9
20260507172012 45 241 12.0 17.0 0.00 0.00 0.00 89 814.1
20260507171902 45 244 12.0 18.0 0.00 0.00 0.00 89 813.9
20260507171532 45 244 12.0 21.0 0.00 0.00 0.00 89 814.2
20260507171312 46 248 15.0 19.0 0.00 0.00 0.00 88 813.9
20260507171202 46 247 16.0 21.0 0.00 0.00 0.00 88 813.9
20260507171052 46 246 15.0 23.0 0.00 0.00 0.00 87 813.9
20260507170942 45 245 14.0 21.0 0.00 0.00 0.00 87 813.8
20260507170832 45 242 15.0 24.0 0.00 0.00 0.00 88 813.9
20260507170722 45 247 15.0 21.0 0.00 0.00 0.00 88 813.8
20260507170612 45 246 15.0 23.0 0.00 0.00 0.00 89 813.9
20260507170502 45 243 12.0 19.0 0.00 0.00 0.00 88 813.9
20260507170352 45 244 12.0 17.0 0.00 0.00 0.00 88 813.9
20260507170242 46 246 13.0 22.0 0.00 0.00 0.00 88 814.1
20260507170132 46 245 16.0 21.0 0.00 0.00 0.00 88 813.8
20260507170022 46 249 15.0 22.0 0.00 0.00 0.00 88 813.8
20260507165912 46 249 14.0 21.0 0.00 0.00 0.00 88 813.8
20260507165802 46 245 12.0 18.0 0.00 0.00 0.00 88 813.8
20260507165652 46 244 12.0 16.0 0.00 0.00 0.00 88 813.9
20260507165542 46 239 12.0 20.0 0.00 0.00 0.00 88 813.9
20260507165432 46 240 14.0 20.0 0.00 0.00 0.00 88 813.8
20260507165212 46 244 14.0 20.0 0.00 0.00 0.00 88 813.8
20260507165102 46 246 13.0 18.0 0.00 0.00 0.00 88 813.8
20260507164842 46 254 13.0 22.0 0.00 0.00 0.00 88 813.8
20260507164732 46 247 13.0 22.0 0.00 0.00 0.00 88 813.8
20260507164621 46 245 14.0 20.0 0.00 0.00 0.00 88 813.8
20260507164512 46 246 15.0 23.0 0.00 0.00 0.00 88 813.8
20260507164402 46 246 14.0 24.0 0.00 0.00 0.00 88 813.9
20260507164252 46 241 13.0 21.0 0.00 0.00 0.00 88 813.9
20260507164032 46 243 12.0 19.0 0.00 0.00 0.00 87 813.8
20260507163811 46 236 12.0 18.0 0.00 0.00 0.00 87 813.8
20260507163702 46 243 12.0 17.0 0.00 0.00 0.00 87 813.8
20260507163552 46 243 12.0 17.0 0.00 0.00 0.00 87 813.8
20260507163442 46 242 11.0 16.0 0.00 0.00 0.00 87 813.9
20260507163222 46 245 12.0 16.0 0.00 0.00 0.00 87 813.8
20260507163112 46 239 12.0 22.0 0.00 0.00 0.00 87 813.9
20260507163002 46 230 10.0 17.0 0.00 0.00 0.00 87 813.9
20260507162852 46 236 12.0 18.0 0.00 0.00 0.00 86 813.8
20260507162522 46 239 12.0 17.0 0.00 0.00 0.00 86 813.8
20260507162412 46 236 11.0 17.0 0.00 0.00 0.00 86 813.8
20260507162152 46 233 10.0 16.0 0.00 0.00 0.00 86 813.9
20260507162042 46 241 11.0 17.0 0.00 0.00 0.00 86 813.9
20260507161932 46 242 12.0 19.0 0.00 0.00 0.00 86 813.9
20260507161822 46 243 12.0 18.0 0.00 0.00 0.00 85 813.9
20260507161712 47 246 12.0 19.0 0.00 0.00 0.00 85 813.9
20260507161602 47 234 11.0 18.0 0.00 0.00 0.00 84 814.1
20260507161452 47 234 10.0 14.0 0.00 0.00 0.00 84 814.2
20260507161342 47 232 12.0 18.0 0.00 0.00 0.00 84 813.9
20260507161121 47 242 12.0 19.0 0.00 0.00 0.00 83 813.9
20260507161012 47 245 11.0 18.0 0.00 0.00 0.00 83 814.1
20260507160902 47 249 11.0 19.0 0.00 0.00 0.00 83 814.1
20260507160752 47 241 10.0 17.0 0.00 0.00 0.00 83 814.1
20260507160642 47 240 10.0 15.0 0.00 0.00 0.00 83 814.1
20260507160532 47 244 11.0 19.0 0.00 0.00 0.00 82 813.9
20260507160422 47 242 11.0 16.0 0.00 0.00 0.00 81 813.9
20260507160202 48 241 11.0 16.0 0.00 0.00 0.00 81 814.1
20260507160051 48 245 13.0 19.0 0.00 0.00 0.00 81 813.9
20260507155942 48 244 12.0 18.0 0.00 0.00 0.00 81 814.1
20260507155831 48 248 12.0 19.0 0.00 0.00 0.00 80 814.2
20260507155722 48 237 11.0 17.0 0.00 0.00 0.00 80 814.2
20260507155612 48 244 11.0 16.0 0.00 0.00 0.00 80 814.1
20260507155352 49 239 12.0 19.0 0.00 0.00 0.00 79 813.9
20260507155241 49 238 12.0 20.0 0.00 0.00 0.00 78 813.9
20260507155132 49 241 11.0 18.0 0.00 0.00 0.00 77 814.1
20260507155022 50 237 11.0 15.0 0.00 0.00 0.00 76 814.1
20260507154912 50 242 11.0 15.0 0.00 0.00 0.00 76 814.2
20260507154652 50 236 11.0 17.0 0.00 0.00 0.00 76 814.1
20260507154542 50 242 11.0 18.0 0.00 0.00 0.00 77 814.1
20260507154431 50 238 10.0 17.0 0.00 0.00 0.00 77 814.2
20260507154321 50 237 10.0 15.0 0.00 0.00 0.00 76 814.2
20260507154212 50 239 12.0 19.0 0.00 0.00 0.00 76 814.2
20260507154101 50 238 10.0 17.0 0.00 0.00 0.00 76 814.1
20260507153951 50 242 12.0 19.0 0.00 0.00 0.00 77 814.1
20260507153841 50 245 10.0 17.0 0.00 0.00 0.00 77 814.1
20260507153732 50 237 11.0 17.0 0.00 0.00 0.00 76 814.2
20260507153511 50 243 11.0 18.0 0.00 0.00 0.00 76 814.2
20260507153401 50 245 11.0 17.0 0.00 0.00 0.00 75 814.2
20260507153252 51 244 12.0 21.0 0.00 0.00 0.00 75 814.1
20260507152811 51 242 10.0 18.0 0.00 0.00 0.00 74 814.1
20260507152551 51 235 10.0 15.0 0.00 0.00 0.00 73 814.2
20260507152442 51 239 10.0 16.0 0.00 0.00 0.00 72 814.2
20260507152332 51 247 11.0 17.0 0.00 0.00 0.00 74 814.2
20260507152221 51 251 13.0 22.0 0.00 0.00 0.00 74 814.2
20260507152112 50 247 11.0 17.0 0.00 0.00 0.00 75 814.2
20260507152002 51 242 10.0 16.0 0.00 0.00 0.00 74 814.2
20260507151851 51 247 10.0 18.0 0.00 0.00 0.00 74 814.2
20260507151742 51 241 12.0 16.0 0.00 0.00 0.00 73 814.2
20260507151631 51 244 11.0 17.0 0.00 0.00 0.00 73 814.2
20260507151521 51 246 12.0 19.0 0.00 0.00 0.00 72 814.2
20260507151412 51 236 11.0 19.0 0.00 0.00 0.00 72 814.3
20260507151302 52 234 11.0 16.0 0.00 0.00 0.00 72 814.2
20260507151044 52 239 12.0 19.0 0.00 0.00 0.00 70 814.2
20260507150932 52 237 11.0 16.0 0.00 0.00 0.00 70 814.2
20260507150821 52 243 11.0 19.0 0.00 0.00 0.00 71 814.3
20260507150712 52 242 13.0 23.0 0.00 0.00 0.00 70 814.2
20260507150602 52 240 10.0 19.0 0.00 0.00 0.00 71 814.3
20260507150342 52 234 10.0 13.0 0.00 0.00 0.00 70 814.3
20260507150012 52 236 9.0 17.0 0.00 0.00 0.00 71 814.3
20260507145754 52 247 13.0 22.0 0.00 0.00 0.00 70 814.3
20260507145655 52 233 11.0 21.0 0.00 0.00 0.00 70 814.6
20260507145532 52 241 10.0 17.0 0.00 0.00 0.00 72 814.3
20260507145423 52 245 9.0 16.0 0.00 0.00 0.00 72 814.5
20260507145311 52 254 15.0 27.0 0.00 0.00 0.00 71 814.3
20260507145201 52 246 10.0 16.0 0.00 0.00 0.00 71 814.3
20260507145052 52 236 7.0 12.0 0.00 0.00 0.00 70 814.5
20260507144942 52 239 7.0 13.0 0.00 0.00 0.00 70 814.5
20260507144831 52 241 10.0 17.0 0.00 0.00 0.00 71 814.3
20260507144722 51 244 13.0 22.0 0.00 0.00 0.00 72 814.2
20260507144612 51 235 14.0 21.0 0.00 0.00 0.00 73 814.2
20260507144502 51 235 11.0 18.0 0.00 0.00 0.00 73 814.3
20260507144353 51 216 12.0 19.0 0.00 0.00 0.00 72 814.3
20260507144241 51 237 10.0 23.0 0.00 0.00 0.00 72 814.6
20260507144133 52 235 10.0 19.0 0.00 0.00 0.00 73 814.3
20260507144022 52 235 8.0 13.0 0.00 0.00 0.00 71 814.3
20260507143911 52 226 11.0 18.0 0.00 0.00 0.00 72 814.5
20260507143802 52 245 11.0 20.0 0.00 0.00 0.00 72 814.3
20260507143651 52 231 11.0 18.0 0.00 0.00 0.00 71 814.3
20260507143542 52 237 9.0 15.0 0.00 0.00 0.00 71 814.5
20260507143431 53 228 12.0 21.0 0.00 0.00 0.00 70 814.6
20260507143321 53 248 11.0 21.0 0.00 0.00 0.00 69 814.3
20260507143212 53 240 9.0 16.0 0.00 0.00 0.00 69 814.5
20260507143102 53 246 8.0 17.0 0.00 0.00 0.00 70 814.6
20260507142951 53 280 7.0 12.0 0.00 0.00 0.00 68 814.5
20260507142842 53 236 10.0 18.0 0.00 0.00 0.00 67 814.5
20260507142732 53 264 10.0 19.0 0.00 0.00 0.00 69 814.3
20260507142621 53 240 5.0 13.0 0.00 0.00 0.00 68 814.5
20260507142512 53 224 6.0 10.0 0.00 0.00 0.00 66 814.5
20260507142402 53 233 10.0 16.0 0.00 0.00 0.00 67 814.5
20260507142251 53 250 13.0 28.0 0.00 0.00 0.00 69 814.3
20260507142141 53 243 12.0 21.0 0.00 0.00 0.00 70 814.3
20260507142031 52 253 10.0 16.0 0.00 0.00 0.00 69 814.3
20260507141922 53 230 12.0 19.0 0.00 0.00 0.00 69 814.5
20260507141701 53 233 12.0 19.0 0.00 0.00 0.00 67 814.3
20260507141557 54 233 11.0 19.0 0.00 0.00 0.00 67 814.3
20260507141442 53 237 10.0 15.0 0.00 0.00 0.00 67 814.3
20260507141112 54 238 12.0 21.0 0.00 0.00 0.00 68 814.3
20260507140853 53 252 11.0 18.0 0.00 0.00 0.00 68 814.3
20260507140742 54 237 13.0 19.0 0.00 0.00 0.00 66 814.3
20260507140412 54 234 9.0 17.0 0.00 0.00 0.00 66 814.6
20260507140301 54 241 11.0 18.0 0.00 0.00 0.00 66 814.3
20260507140151 54 242 8.0 17.0 0.00 0.00 0.00 66 814.5
20260507135934 54 241 11.0 16.0 0.00 0.00 0.00 66 814.5
20260507135712 54 247 9.0 16.0 0.00 0.00 0.00 66 814.6
20260507135603 54 238 10.0 19.0 0.00 0.00 0.00 65 814.5
20260507135452 54 246 12.0 21.0 0.00 0.00 0.00 65 814.5
20260507135232 55 235 8.0 15.0 0.00 0.00 0.00 65 814.6
20260507135122 55 257 9.0 17.0 0.00 0.00 0.00 64 814.5
20260507135014 55 237 7.0 16.0 0.00 0.00 0.00 63 814.5
20260507134901 55 229 9.0 16.0 0.00 0.00 0.00 63 814.6
20260507134752 55 248 7.0 12.0 0.00 0.00 0.00 64 814.6
20260507134642 55 243 10.0 15.0 0.00 0.00 0.00 63 814.6
20260507134532 55 241 9.0 14.0 0.00 0.00 0.00 62 814.6
20260507134422 55 228 8.0 15.0 0.00 0.00 0.00 63 814.6
20260507134201 56 258 11.0 19.0 0.00 0.00 0.00 62 814.6
20260507134054 56 252 10.0 17.0 0.00 0.00 0.00 62 814.6
20260507133832 55 239 8.0 15.0 0.00 0.00 0.00 63 814.6
20260507133721 55 254 8.0 17.0 0.00 0.00 0.00 62 814.6
20260507133611 55 249 11.0 16.0 0.00 0.00 0.00 62 814.6
20260507133502 55 253 12.0 21.0 0.00 0.00 0.00 64 814.3
20260507133352 55 242 9.0 14.0 0.00 0.00 0.00 62 814.6
20260507133242 55 234 10.0 14.0 0.00 0.00 0.00 62 814.6
20260507133132 55 235 8.0 14.0 0.00 0.00 0.00 63 814.6
20260507133022 55 232 9.0 16.0 0.00 0.00 0.00 63 814.6
20260507132913 55 246 9.0 16.0 0.00 0.00 0.00 63 814.6
20260507132541 54 255 12.0 22.0 0.00 0.00 0.00 64 814.5
20260507132432 54 232 10.0 21.0 0.00 0.00 0.00 64 814.6
20260507132322 55 253 7.0 16.0 0.00 0.00 0.00 62 814.6
20260507132211 55 245 11.0 19.0 0.00 0.00 0.00 64 814.6
20260507132102 54 254 11.0 19.0 0.00 0.00 0.00 64 814.6
20260507131952 54 246 11.0 19.0 0.00 0.00 0.00 66 814.6
20260507131841 54 260 9.0 15.0 0.00 0.00 0.00 67 814.6
20260507131731 54 260 11.0 20.0 0.00 0.00 0.00 65 814.5
20260507131621 53 245 12.0 21.0 0.00 0.00 0.00 66 814.6
20260507131252 53 242 11.0 16.0 0.00 0.00 0.00 66 814.6
20260507131141 52 255 10.0 19.0 0.00 0.00 0.00 67 814.6
20260507131032 52 238 8.0 13.0 0.00 0.00 0.00 67 814.6
20260507130921 52 252 7.0 10.0 0.00 0.00 0.00 64 814.7
20260507130813 53 238 10.0 17.0 0.00 0.00 0.00 62 814.6
20260507130552 55 232 11.0 17.0 0.00 0.00 0.00 60 814.6
20260507130442 55 236 10.0 15.0 0.00 0.00 0.00 60 814.6
20260507130332 55 238 9.0 15.0 0.00 0.00 0.00 62 814.6
20260507130225 55 246 11.0 17.0 0.00 0.00 0.00 62 814.6
20260507130113 55 244 10.0 20.0 0.00 0.00 0.00 61 814.6
20260507130002 55 234 10.0 14.0 0.00 0.00 0.00 60 814.6
20260507125852 56 237 11.0 18.0 0.00 0.00 0.00 59 814.6
20260507125741 56 241 13.0 22.0 0.00 0.00 0.00 60 814.6
20260507125632 55 257 11.0 19.0 0.00 0.00 0.00 65 814.6
20260507125522 54 260 9.0 14.0 0.00 0.00 0.00 66 814.6
20260507125412 53 252 7.0 12.0 0.00 0.00 0.00 65 814.6
20260507125301 53 249 12.0 16.0 0.00 0.00 0.00 66 814.6
20260507125155 52 229 11.0 16.0 0.00 0.00 0.00 65 814.7
20260507125041 52 239 10.0 16.0 0.00 0.00 0.00 65 814.6
20260507124711 52 239 9.0 15.0 0.00 0.00 0.00 66 814.6
20260507124602 52 240 11.0 15.0 0.00 0.00 0.00 65 814.6
20260507124341 52 230 10.0 16.0 0.00 0.00 0.00 64 814.6
20260507124233 52 244 10.0 15.0 0.00 0.00 0.00 64 814.7
20260507124121 53 242 9.0 15.0 0.00 0.00 0.00 64 814.7
20260507124012 53 241 9.0 16.0 0.00 0.00 0.00 64 814.7
20260507123902 53 234 7.0 12.0 0.00 0.00 0.00 64 814.7
20260507123753 53 235 8.0 14.0 0.00 0.00 0.00 64 814.7
20260507123642 53 236 7.0 14.0 0.00 0.00 0.00 64 814.7
20260507123532 53 241 7.0 15.0 0.00 0.00 0.00 64 814.7
20260507123422 53 244 7.0 15.0 0.00 0.00 0.00 62 814.7
20260507123312 54 218 11.0 18.0 0.00 0.00 0.00 60 814.7
20260507123052 54 242 10.0 18.0 0.00 0.00 0.00 61 814.6
20260507122944 55 226 8.0 15.0 0.00 0.00 0.00 61 814.7
20260507122831 54 227 7.0 12.0 0.00 0.00 0.00 63 814.9
20260507122611 54 236 9.0 17.0 0.00 0.00 0.00 62 814.7
20260507122352 54 244 8.0 15.0 0.00 0.00 0.00 62 814.7
20260507122241 54 223 10.0 15.0 0.00 0.00 0.00 61 814.9
20260507122131 55 241 8.0 15.0 0.00 0.00 0.00 59 815.0
20260507122022 55 231 9.0 16.0 0.00 0.00 0.00 59 814.9
20260507121911 55 235 8.0 15.0 0.00 0.00 0.00 58 814.9
20260507121801 56 237 10.0 16.0 0.00 0.00 0.00 57 814.9
20260507121541 56 244 8.0 16.0 0.00 0.00 0.00 56 814.9
20260507121431 56 228 5.0 10.0 0.00 0.00 0.00 56 814.9
20260507121211 56 241 8.0 20.0 0.00 0.00 0.00 57 814.9
20260507121101 56 230 7.0 14.0 0.00 0.00 0.00 57 814.9
20260507120952 56 232 8.0 15.0 0.00 0.00 0.00 58 814.9
20260507120841 56 243 9.0 15.0 0.00 0.00 0.00 59 814.9
20260507120732 56 260 9.0 19.0 0.00 0.00 0.00 55 814.9
20260507120623 56 228 9.0 13.0 0.00 0.00 0.00 57 814.9
20260507120401 56 249 9.0 21.0 0.00 0.00 0.00 55 814.9
20260507120252 57 253 7.0 14.0 0.00 0.00 0.00 56 814.9
20260507120143 57 227 8.0 13.0 0.00 0.00 0.00 56 815.0
20260507120031 57 235 8.0 14.0 0.00 0.00 0.00 57 815.0
20260507115812 56 232 8.0 15.0 0.00 0.00 0.00 58 814.7
20260507115701 56 269 8.0 17.0 0.00 0.00 0.00 59 815.0
20260507115551 56 203 6.0 11.0 0.00 0.00 0.00 57 815.0
20260507115442 55 236 7.0 14.0 0.00 0.00 0.00 61 815.0
20260507115331 55 238 7.0 10.0 0.00 0.00 0.00 60 815.0
20260507115221 55 244 10.0 16.0 0.00 0.00 0.00 60 815.0
20260507115112 55 262 3.0 8.0 0.00 0.00 0.00 59 815.0
20260507114852 56 214 8.0 14.0 0.00 0.00 0.00 55 815.0
20260507114742 57 236 8.0 16.0 0.00 0.00 0.00 56 815.0
20260507114522 57 248 7.0 15.0 0.00 0.00 0.00 56 815.1
20260507114301 57 230 8.0 12.0 0.00 0.00 0.00 54 815.0
20260507114042 58 237 7.0 13.0 0.00 0.00 0.00 55 815.0
20260507113931 57 244 5.0 14.0 0.00 0.00 0.00 57 815.0
20260507113821 56 233 6.0 12.0 0.00 0.00 0.00 57 815.0
20260507113451 56 247 11.0 19.0 0.00 0.00 0.00 57 815.0
20260507113341 56 230 11.0 19.0 0.00 0.00 0.00 57 815.0
20260507113122 57 241 7.0 13.0 0.00 0.00 0.00 56 815.0
20260507113012 57 244 8.0 18.0 0.00 0.00 0.00 56 815.0
20260507112752 57 243 7.0 18.0 0.00 0.00 0.00 56 815.0
20260507112641 58 258 6.0 11.0 0.00 0.00 0.00 53 814.9
20260507112533 58 249 6.0 10.0 0.00 0.00 0.00 54 815.0
20260507112421 58 237 8.0 17.0 0.00 0.00 0.00 54 815.0
20260507112311 57 240 6.0 12.0 0.00 0.00 0.00 55 815.0
20260507112202 57 253 6.0 13.0 0.00 0.00 0.00 56 815.0
20260507112052 57 235 6.0 13.0 0.00 0.00 0.00 55 814.9
20260507111941 56 270 11.0 20.0 0.00 0.00 0.00 55 814.9
20260507111723 56 243 8.0 17.0 0.00 0.00 0.00 54 815.0
20260507111502 56 216 4.0 14.0 0.00 0.00 0.00 55 815.0
20260507111351 56 227 7.0 14.0 0.00 0.00 0.00 53 815.0
20260507111241 56 254 9.0 16.0 0.00 0.00 0.00 54 815.0
20260507111131 57 235 10.0 16.0 0.00 0.00 0.00 53 815.0
20260507111022 56 236 10.0 17.0 0.00 0.00 0.00 54 815.0
20260507110911 56 245 8.0 16.0 0.00 0.00 0.00 53 815.0
20260507110801 56 247 8.0 16.0 0.00 0.00 0.00 53 814.9
20260507110652 57 234 8.0 16.0 0.00 0.00 0.00 54 815.0
20260507110541 57 227 8.0 15.0 0.00 0.00 0.00 53 815.0
20260507110431 57 251 8.0 16.0 0.00 0.00 0.00 52 815.0
20260507110322 57 250 8.0 13.0 0.00 0.00 0.00 53 815.0
20260507110212 57 240 6.0 10.0 0.00 0.00 0.00 53 815.0
20260507105953 57 232 7.0 13.0 0.00 0.00 0.00 51 815.0
20260507105842 57 226 8.0 16.0 0.00 0.00 0.00 52 815.0
20260507105731 57 236 5.0 10.0 0.00 0.00 0.00 50 815.0
20260507105621 57 215 7.0 12.0 0.00 0.00 0.00 51 815.0
20260507105251 57 238 8.0 14.0 0.00 0.00 0.00 50 815.0
20260507105141 58 241 8.0 14.0 0.00 0.00 0.00 50 814.9
20260507105035 58 233 7.0 16.0 0.00 0.00 0.00 50 815.0
20260507104812 57 243 6.0 14.0 0.00 0.00 0.00 52 815.0
20260507104701 57 253 8.0 15.0 0.00 0.00 0.00 48 815.0
20260507104552 57 239 8.0 12.0 0.00 0.00 0.00 49 815.0
20260507104443 57 236 7.0 13.0 0.00 0.00 0.00 49 815.0
20260507104331 57 226 8.0 13.0 0.00 0.00 0.00 51 815.0
20260507104221 56 262 4.0 10.0 0.00 0.00 0.00 48 815.0
20260507104001 56 288 5.0 12.0 0.00 0.00 0.00 49 815.0
20260507103853 56 234 6.0 11.0 0.00 0.00 0.00 47 815.0
20260507103741 57 228 4.0 9.0 0.00 0.00 0.00 49 815.1
20260507103522 55 242 6.0 13.0 0.00 0.00 0.00 51 815.0
20260507103412 55 227 5.0 13.0 0.00 0.00 0.00 49 815.0
20260507103301 55 231 8.0 14.0 0.00 0.00 0.00 50 815.1
20260507103154 55 225 10.0 15.0 0.00 0.00 0.00 48 815.0
20260507103041 56 268 10.0 23.0 0.00 0.00 0.00 49 815.0
20260507102931 56 245 9.0 15.0 0.00 0.00 0.00 48 815.0
20260507102822 56 235 8.0 15.0 0.00 0.00 0.00 48 815.0
20260507102601 56 247 7.0 14.0 0.00 0.00 0.00 48 815.0
20260507102456 56 252 4.0 12.0 0.00 0.00 0.00 48 815.0
20260507102342 56 286 6.0 14.0 0.00 0.00 0.00 48 815.0
20260507102232 56 238 6.0 15.0 0.00 0.00 0.00 46 815.0
20260507102011 55 228 8.0 15.0 0.00 0.00 0.00 50 815.0
20260507101903 55 249 5.0 14.0 0.00 0.00 0.00 50 815.0
20260507101752 55 266 5.0 9.0 0.00 0.00 0.00 49 815.1
20260507101641 55 200 5.0 8.0 0.00 0.00 0.00 50 815.1
20260507101533 55 226 7.0 12.0 0.00 0.00 0.00 49 815.1
20260507101423 55 224 9.0 14.0 0.00 0.00 0.00 50 815.1
20260507101312 55 296 4.0 13.0 0.00 0.00 0.00 50 815.1
20260507101201 55 278 3.0 8.0 0.00 0.00 0.00 46 815.3
20260507101054 55 201 6.0 10.0 0.00 0.00 0.00 46 815.3
20260507100942 56 254 7.0 15.0 0.00 0.00 0.00 48 815.3
20260507100832 56 283 6.0 13.0 0.00 0.00 0.00 48 815.0
20260507100722 56 246 5.0 11.0 0.00 0.00 0.00 46 815.1
20260507100614 57 272 9.0 15.0 0.00 0.00 0.00 46 815.1
20260507100501 57 197 5.0 9.0 0.00 0.00 0.00 46 815.1
20260507100353 57 236 5.0 8.0 0.00 0.00 0.00 46 815.1
20260507100241 56 233 6.0 10.0 0.00 0.00 0.00 46 815.1
20260507100132 56 235 4.0 9.0 0.00 0.00 0.00 44 815.1
20260507100023 56 262 8.0 13.0 0.00 0.00 0.00 46 815.0
20260507095801 56 254 8.0 12.0 0.00 0.00 0.00 45 815.1
20260507095431 56 258 8.0 13.0 0.00 0.00 0.00 45 815.3
20260507095321 56 206 5.0 12.0 0.00 0.00 0.00 45 815.0
20260507095212 56 272 7.0 13.0 0.00 0.00 0.00 45 815.1
20260507095101 56 269 6.0 12.0 0.00 0.00 0.00 44 815.1
20260507094951 56 207 6.0 12.0 0.00 0.00 0.00 41 815.3
20260507094842 56 233 6.0 11.0 0.00 0.00 0.00 40 815.1
20260507094511 56 235 9.0 14.0 0.00 0.00 0.00 42 815.1
20260507094252 56 272 6.0 12.0 0.00 0.00 0.00 46 815.1
20260507094142 56 250 3.0 8.0 0.00 0.00 0.00 46 815.1
20260507094035 55 268 3.0 7.0 0.00 0.00 0.00 43 815.1
20260507093924 56 185 4.0 8.0 0.00 0.00 0.00 42 815.3
20260507093812 56 214 4.0 8.0 0.00 0.00 0.00 42 815.3
20260507093701 56 229 5.0 12.0 0.00 0.00 0.00 44 815.3
20260507093331 56 257 9.0 12.0 0.00 0.00 0.00 42 815.1
20260507093221 56 254 7.0 15.0 0.00 0.00 0.00 42 815.1
20260507093111 56 242 5.0 9.0 0.00 0.00 0.00 42 815.1
20260507093002 56 264 5.0 12.0 0.00 0.00 0.00 43 815.3
20260507092852 56 266 5.0 10.0 0.00 0.00 0.00 43 815.1
20260507092741 56 253 7.0 12.0 0.00 0.00 0.00 41 815.1
20260507092632 56 247 7.0 11.0 0.00 0.00 0.00 42 815.1
20260507092521 56 264 7.0 12.0 0.00 0.00 0.00 42 815.1
20260507092411 56 252 9.0 18.0 0.00 0.00 0.00 45 815.0
20260507092301 56 259 6.0 10.0 0.00 0.00 0.00 45 815.1
20260507092151 56 253 6.0 11.0 0.00 0.00 0.00 45 815.1
20260507092041 56 227 7.0 15.0 0.00 0.00 0.00 44 815.3
20260507091932 56 245 7.0 12.0 0.00 0.00 0.00 46 815.1
20260507091821 56 255 7.0 13.0 0.00 0.00 0.00 48 815.1
20260507091711 56 275 7.0 12.0 0.00 0.00 0.00 47 815.3
20260507091604 56 241 4.0 8.0 0.00 0.00 0.00 42 815.3
20260507091451 56 222 4.0 7.0 0.00 0.00 0.00 45 815.3
20260507091341 56 234 4.0 10.0 0.00 0.00 0.00 45 815.3
20260507091232 56 254 6.0 11.0 0.00 0.00 0.00 46 815.3
20260507091122 56 278 5.0 11.0 0.00 0.00 0.00 46 815.1
20260507091016 56 267 5.0 10.0 0.00 0.00 0.00 44 815.1
20260507090642 56 264 5.0 11.0 0.00 0.00 0.00 46 815.1
20260507090531 56 260 4.0 10.0 0.00 0.00 0.00 48 815.1
20260507090421 56 78 4.0 8.0 0.00 0.00 0.00 47 815.1
20260507090312 56 243 6.0 11.0 0.00 0.00 0.00 47 815.1
20260507090202 56 275 3.0 8.0 0.00 0.00 0.00 48 815.1
20260507090051 56 262 6.0 12.0 0.00 0.00 0.00 47 815.1
20260507085941 56 237 5.0 8.0 0.00 0.00 0.00 50 815.1
20260507085834 55 232 5.0 9.0 0.00 0.00 0.00 50 815.3
20260507085501 55 271 8.0 14.0 0.00 0.00 0.00 49 815.1
20260507085355 56 258 6.0 11.0 0.00 0.00 0.00 50 815.1
20260507085242 56 258 6.0 12.0 0.00 0.00 0.00 47 815.1
20260507085131 56 210 6.0 10.0 0.00 0.00 0.00 50 815.3
20260507085022 56 281 2.0 6.0 0.00 0.00 0.00 48 815.3
20260507084801 56 234 5.0 8.0 0.00 0.00 0.00 51 815.3
20260507084651 56 232 5.0 11.0 0.00 0.00 0.00 52 815.1
20260507084431 56 300 4.0 10.0 0.00 0.00 0.00 51 815.1
20260507084211 55 244 4.0 8.0 0.00 0.00 0.00 52 815.3
20260507083952 55 214 4.0 8.0 0.00 0.00 0.00 53 815.3
20260507083841 55 267 4.0 9.0 0.00 0.00 0.00 54 815.1
20260507083731 55 243 3.0 6.0 0.00 0.00 0.00 55 815.1
20260507083621 54 243 3.0 7.0 0.00 0.00 0.00 56 815.1
20260507083511 54 279 5.0 8.0 0.00 0.00 0.00 56 815.1
20260507083401 55 238 4.0 10.0 0.00 0.00 0.00 55 815.1
20260507083031 56 227 6.0 12.0 0.00 0.00 0.00 54 815.1
20260507082921 56 258 5.0 11.0 0.00 0.00 0.00 55 815.1
20260507082812 55 257 7.0 11.0 0.00 0.00 0.00 55 815.0
20260507082701 55 252 5.0 10.0 0.00 0.00 0.00 55 815.1
20260507082551 55 264 5.0 8.0 0.00 0.00 0.00 55 815.1
20260507082331 55 249 5.0 10.0 0.00 0.00 0.00 52 815.0
20260507082221 55 231 6.0 10.0 0.00 0.00 0.00 55 815.1
20260507082116 55 239 6.0 10.0 0.00 0.00 0.00 53 815.0
20260507082001 54 219 6.0 9.0 0.00 0.00 0.00 54 815.0
20260507081851 54 274 5.0 11.0 0.00 0.00 0.00 54 815.1
20260507081741 54 256 6.0 9.0 0.00 0.00 0.00 55 815.0
20260507081632 54 232 6.0 10.0 0.00 0.00 0.00 57 815.1
20260507081523 54 242 4.0 8.0 0.00 0.00 0.00 52 815.1
20260507081301 54 227 2.0 6.0 0.00 0.00 0.00 52 815.1
20260507081153 54 207 4.0 6.0 0.00 0.00 0.00 56 815.1
20260507081042 53 201 5.0 8.0 0.00 0.00 0.00 57 815.1
20260507080932 54 231 4.0 7.0 0.00 0.00 0.00 55 815.0
20260507080821 54 232 5.0 8.0 0.00 0.00 0.00 56 815.1
20260507080712 54 232 6.0 9.0 0.00 0.00 0.00 56 815.0
20260507080602 55 266 5.0 10.0 0.00 0.00 0.00 55 815.0
20260507080452 55 266 6.0 9.0 0.00 0.00 0.00 54 815.0
20260507080121 55 260 6.0 10.0 0.00 0.00 0.00 50 815.0
20260507075901 55 244 5.0 8.0 0.00 0.00 0.00 57 815.0
20260507075531 54 236 3.0 6.0 0.00 0.00 0.00 59 815.0
20260507075311 54 241 3.0 6.0 0.00 0.00 0.00 60 815.1
20260507075201 54 234 4.0 7.0 0.00 0.00 0.00 58 815.0
20260507075052 54 231 3.0 6.0 0.00 0.00 0.00 58 815.0
20260507074941 54 259 3.0 7.0 0.00 0.00 0.00 56 815.0
20260507074722 54 231 3.0 6.0 0.00 0.00 0.00 55 815.0
20260507074612 54 229 3.0 5.0 0.00 0.00 0.00 58 815.0
20260507074501 53 240 5.0 7.0 0.00 0.00 0.00 57 815.0
20260507074356 54 266 5.0 7.0 0.00 0.00 0.00 56 815.0
20260507074244 54 240 3.0 5.0 0.00 0.00 0.00 56 815.0
20260507074132 54 255 3.0 4.0 0.00 0.00 0.00 56 815.0
20260507074021 54 271 4.0 6.0 0.00 0.00 0.00 56 815.0
20260507073911 54 270 3.0 6.0 0.00 0.00 0.00 57 815.0
20260507073801 54 224 3.0 4.0 0.00 0.00 0.00 58 815.0
20260507073651 53 96 1.0 2.0 0.00 0.00 0.00 58 815.0
20260507073541 53 178 1.0 3.0 0.00 0.00 0.00 58 815.0
20260507073433 53 267 3.0 6.0 0.00 0.00 0.00 58 815.0
20260507073321 53 253 4.0 6.0 0.00 0.00 0.00 59 815.0
20260507073215 53 266 3.0 6.0 0.00 0.00 0.00 58 815.0
20260507073102 53 279 3.0 5.0 0.00 0.00 0.00 58 815.0
20260507072951 53 267 2.0 3.0 0.00 0.00 0.00 57 815.0
20260507072841 53 277 2.0 4.0 0.00 0.00 0.00 57 815.0
20260507072621 53 261 3.0 5.0 0.00 0.00 0.00 56 815.0
20260507072512 53 251 2.0 5.0 0.00 0.00 0.00 57 815.0
20260507072402 53 237 3.0 5.0 0.00 0.00 0.00 56 815.0
20260507072252 52 237 4.0 7.0 0.00 0.00 0.00 55 815.0
20260507072141 53 227 3.0 5.0 0.00 0.00 0.00 55 815.0
20260507072031 53 252 3.0 5.0 0.00 0.00 0.00 53 814.9
20260507071921 53 265 3.0 5.0 0.00 0.00 0.00 52 815.0
20260507071701 53 279 2.0 4.0 0.00 0.00 0.00 53 815.0
20260507071331 53 261 3.0 5.0 0.00 0.00 0.00 47 815.0
20260507071111 53 295 3.0 5.0 0.00 0.00 0.00 47 814.9
20260507071001 54 311 3.0 4.0 0.00 0.00 0.00 45 814.9
20260507070853 54 313 3.0 6.0 0.00 0.00 0.00 45 814.9
20260507070742 54 296 2.0 4.0 0.00 0.00 0.00 45 815.0
20260507070631 54 263 3.0 4.0 0.00 0.00 0.00 45 814.9
20260507070412 54 290 2.0 6.0 0.00 0.00 0.00 44 814.9
20260507070301 55 349 2.0 6.0 0.00 0.00 0.00 43 814.9
20260507070151 55 67 4.0 10.0 0.00 0.00 0.00 44 814.7
20260507070041 55 3 3.0 7.0 0.00 0.00 0.00 42 814.7
20260507065931 54 152 1.0 3.0 0.00 0.00 0.00 43 814.7
20260507065711 54 346 1.0 2.0 0.00 0.00 0.00 40 814.9
20260507065601 54 323 2.0 3.0 0.00 0.00 0.00 41 814.7
20260507065455 54 285 2.0 4.0 0.00 0.00 0.00 42 814.7
20260507065341 54 284 3.0 6.0 0.00 0.00 0.00 42 814.7
20260507065231 54 27 2.0 6.0 0.00 0.00 0.00 41 814.9
20260507065011 54 223 2.0 5.0 0.00 0.00 0.00 40 814.7
20260507064901 54 266 2.0 4.0 0.00 0.00 0.00 38 814.7
20260507064751 54 243 2.0 4.0 0.00 0.00 0.00 38 814.7
20260507064641 55 208 2.0 5.0 0.00 0.00 0.00 40 814.7
20260507064531 55 293 3.0 6.0 0.00 0.00 0.00 38 814.7
20260507064311 55 266 3.0 5.0 0.00 0.00 0.00 38 814.7
20260507064201 55 214 3.0 10.0 0.00 0.00 0.00 40 814.7
20260507064051 55 122 1.0 3.0 0.00 0.00 0.00 36 814.7
20260507063941 55 263 1.0 4.0 0.00 0.00 0.00 36 814.7
20260507063831 55 13 1.0 3.0 0.00 0.00 0.00 34 814.7
20260507063611 55 270 2.0 3.0 0.00 0.00 0.00 36 814.7
20260507063501 54 22 1.0 4.0 0.00 0.00 0.00 39 814.7
20260507063351 54 126 1.0 4.0 0.00 0.00 0.00 39 814.7
20260507063241 54 178 1.0 4.0 0.00 0.00 0.00 38 814.7
20260507063131 54 161 4.0 5.0 0.00 0.00 0.00 41 814.7
20260507063021 54 83 2.0 4.0 0.00 0.00 0.00 40 814.7
20260507062911 54 82 3.0 5.0 0.00 0.00 0.00 43 814.7
20260507062801 53 155 2.0 4.0 0.00 0.00 0.00 38 814.7
20260507062651 53 167 2.0 4.0 0.00 0.00 0.00 37 814.7
20260507062543 53 91 2.0 4.0 0.00 0.00 0.00 43 814.7
20260507062434 53 108 5.0 7.0 0.00 0.00 0.00 40 814.7
20260507062321 53 87 5.0 7.0 0.00 0.00 0.00 42 814.7
20260507062212 53 76 5.0 7.0 0.00 0.00 0.00 43 814.7
20260507061951 52 130 3.0 7.0 0.00 0.00 0.00 38 814.7
20260507061841 52 152 5.0 7.0 0.00 0.00 0.00 40 814.7
20260507061512 52 95 7.0 10.0 0.00 0.00 0.00 42 814.6
20260507061403 52 110 4.0 6.0 0.00 0.00 0.00 38 814.7
20260507061032 52 76 6.0 10.0 0.00 0.00 0.00 38 814.6
20260507060921 53 83 6.0 9.0 0.00 0.00 0.00 38 814.6
20260507060811 53 93 8.0 12.0 0.00 0.00 0.00 39 814.6
20260507060551 53 70 6.0 8.0 0.00 0.00 0.00 36 814.6
20260507060441 53 110 7.0 11.0 0.00 0.00 0.00 39 814.6
20260507060331 53 109 5.0 8.0 0.00 0.00 0.00 36 814.7
20260507060221 53 100 6.0 8.0 0.00 0.00 0.00 38 814.7
20260507060111 53 94 4.0 7.0 0.00 0.00 0.00 39 814.7
20260507060001 53 116 4.0 7.0 0.00 0.00 0.00 37 814.7
20260507055853 53 66 4.0 6.0 0.00 0.00 0.00 36 814.7
20260507055741 53 91 4.0 6.0 0.00 0.00 0.00 38 814.7
20260507055521 53 66 6.0 9.0 0.00 0.00 0.00 38 814.7
20260507055301 52 106 4.0 5.0 0.00 0.00 0.00 36 814.7
20260507055041 52 109 4.0 9.0 0.00 0.00 0.00 35 814.6
20260507054932 52 89 3.0 4.0 0.00 0.00 0.00 36 814.7
20260507054821 52 87 5.0 7.0 0.00 0.00 0.00 36 814.6
20260507054711 52 89 4.0 6.0 0.00 0.00 0.00 37 814.7
20260507054452 51 43 5.0 8.0 0.00 0.00 0.00 37 814.7
20260507054232 51 0 4.0 6.0 0.00 0.00 0.00 35 814.6
20260507054121 51 5 4.0 6.0 0.00 0.00 0.00 35 814.6
20260507053902 51 0 4.0 6.0 0.00 0.00 0.00 35 814.6
20260507053754 51 347 3.0 4.0 0.00 0.00 0.00 33 814.6
20260507053644 51 341 3.0 4.0 0.00 0.00 0.00 33 814.6
20260507053532 51 349 3.0 4.0 0.00 0.00 0.00 34 814.6
20260507053425 51 339 1.0 3.0 0.00 0.00 0.00 33 814.6
20260507053311 51 346 2.0 3.0 0.00 0.00 0.00 34 814.6
20260507053201 51 335 2.0 2.0 0.00 0.00 0.00 33 814.6
20260507053052 50 337 2.0 2.0 0.00 0.00 0.00 32 814.6
20260507052832 50 341 3.0 4.0 0.00 0.00 0.00 34 814.6
20260507052352 50 339 4.0 5.0 0.00 0.00 0.00 34 814.6
20260507052243 50 337 5.0 6.0 0.00 0.00 0.00 34 814.6
20260507052132 49 339 4.0 6.0 0.00 0.00 0.00 35 814.6
20260507052022 49 341 5.0 6.0 0.00 0.00 0.00 35 814.6
20260507051916 49 343 5.0 6.0 0.00 0.00 0.00 35 814.6
20260507051802 49 338 6.0 8.0 0.00 0.00 0.00 35 814.6
20260507051651 49 2 5.0 7.0 0.00 0.00 0.00 36 814.6
20260507051542 49 349 5.0 6.0 0.00 0.00 0.00 36 814.6
20260507051432 49 345 5.0 6.0 0.00 0.00 0.00 36 814.6
20260507051322 49 334 6.0 6.0 0.00 0.00 0.00 36 814.6
20260507051211 49 335 8.0 9.0 0.00 0.00 0.00 35 814.6
20260507051102 49 322 6.0 8.0 0.00 0.00 0.00 35 814.6
20260507050842 49 321 8.0 9.0 0.00 0.00 0.00 35 814.6
20260507050733 49 312 8.0 9.0 0.00 0.00 0.00 36 814.6
20260507050621 49 307 9.0 10.0 0.00 0.00 0.00 36 814.6
20260507050512 49 314 9.0 10.0 0.00 0.00 0.00 37 814.6
20260507050403 49 313 8.0 9.0 0.00 0.00 0.00 36 814.6
20260507050143 49 321 9.0 12.0 0.00 0.00 0.00 36 814.6
20260507050033 49 315 10.0 13.0 0.00 0.00 0.00 36 814.6
20260507045811 49 319 13.0 15.0 0.00 0.00 0.00 36 814.5
20260507045702 49 317 12.0 14.0 0.00 0.00 0.00 36 814.5
20260507045551 49 320 11.0 14.0 0.00 0.00 0.00 36 814.5
20260507045441 49 318 9.0 14.0 0.00 0.00 0.00 36 814.6
20260507045334 49 330 8.0 11.0 0.00 0.00 0.00 36 814.6
20260507045223 49 324 10.0 12.0 0.00 0.00 0.00 36 814.5
20260507045112 49 327 9.0 14.0 0.00 0.00 0.00 36 814.6
20260507045003 49 320 9.0 12.0 0.00 0.00 0.00 36 814.3
20260507044744 49 317 10.0 11.0 0.00 0.00 0.00 36 814.6
20260507044521 49 322 11.0 15.0 0.00 0.00 0.00 35 814.6
20260507044301 49 316 11.0 14.0 0.00 0.00 0.00 35 814.3
20260507043932 49 325 8.0 12.0 0.00 0.00 0.00 35 814.5
20260507043822 49 324 10.0 12.0 0.00 0.00 0.00 34 814.3
20260507043711 49 319 12.0 16.0 0.00 0.00 0.00 34 814.3
20260507043603 49 324 11.0 14.0 0.00 0.00 0.00 34 814.3
20260507043451 49 325 12.0 15.0 0.00 0.00 0.00 35 814.3
20260507043341 49 316 12.0 18.0 0.00 0.00 0.00 35 814.2
20260507043231 49 322 11.0 15.0 0.00 0.00 0.00 35 814.3
20260507043121 48 329 12.0 14.0 0.00 0.00 0.00 35 814.3
20260507043011 48 324 12.0 15.0 0.00 0.00 0.00 35 814.3
20260507042901 48 326 10.0 15.0 0.00 0.00 0.00 36 814.3
20260507042641 48 318 11.0 15.0 0.00 0.00 0.00 36 814.2
20260507042531 48 330 11.0 16.0 0.00 0.00 0.00 36 814.3
20260507042421 48 336 8.0 12.0 0.00 0.00 0.00 36 814.3
20260507042311 48 330 9.0 13.0 0.00 0.00 0.00 36 814.2
20260507042201 48 325 10.0 13.0 0.00 0.00 0.00 36 814.2
20260507042051 48 318 11.0 15.0 0.00 0.00 0.00 36 814.2
20260507041941 48 325 10.0 13.0 0.00 0.00 0.00 36 814.3
20260507041833 48 330 10.0 13.0 0.00 0.00 0.00 36 814.3
20260507041721 48 333 10.0 13.0 0.00 0.00 0.00 36 814.3
20260507041501 48 342 10.0 12.0 0.00 0.00 0.00 36 814.3
20260507041351 48 342 12.0 13.0 0.00 0.00 0.00 35 814.2
20260507041241 48 342 11.0 14.0 0.00 0.00 0.00 35 814.2
20260507041132 48 349 12.0 13.0 0.00 0.00 0.00 36 814.2
20260507041021 48 345 10.0 12.0 0.00 0.00 0.00 36 814.3
20260507040912 48 348 11.0 13.0 0.00 0.00 0.00 37 814.2
20260507040651 48 356 12.0 13.0 0.00 0.00 0.00 38 814.2
20260507040541 48 4 14.0 15.0 0.00 0.00 0.00 36 814.2
20260507040321 48 4 14.0 16.0 0.00 0.00 0.00 37 814.2
20260507035951 48 6 14.0 15.0 0.00 0.00 0.00 37 814.2
20260507035841 48 6 14.0 16.0 0.00 0.00 0.00 39 814.2
20260507035731 48 6 15.0 17.0 0.00 0.00 0.00 38 814.2
20260507035621 48 8 15.0 17.0 0.00 0.00 0.00 38 814.2
20260507035511 48 7 15.0 16.0 0.00 0.00 0.00 40 814.1
20260507035251 48 13 16.0 18.0 0.00 0.00 0.00 43 813.9
20260507035141 48 14 15.0 16.0 0.00 0.00 0.00 42 813.9
20260507035031 48 15 13.0 15.0 0.00 0.00 0.00 45 814.1
20260507034921 48 14 15.0 18.0 0.00 0.00 0.00 39 813.9
20260507034811 48 14 16.0 18.0 0.00 0.00 0.00 40 813.9
20260507034701 48 13 16.0 19.0 0.00 0.00 0.00 36 813.9
20260507034441 48 12 17.0 19.0 0.00 0.00 0.00 35 813.8
20260507034331 48 15 17.0 19.0 0.00 0.00 0.00 39 813.8
20260507034221 48 19 15.0 19.0 0.00 0.00 0.00 42 813.8
20260507034001 48 20 14.0 18.0 0.00 0.00 0.00 43 813.8